Location: Poughquag
(41.6090°N, 73.6820°W)
Time: 16:13:00
(UTC-04:00)

Vanguard 2 - Pass Details

Date: 01 June 2020
Orbit: 554 x 2937 km, 32.9° (Epoch: 30 October)

Event Time Altitude Azimuth Distance (km) Brightness Sun altitude
Rises 22:26:17 0° 265° (W) 5,258 12.2 -17.7°
Reaches altitude 10° 22:30:35 10° 259° (W) 3,845 11.4 -18.2°
Maximum altitude 22:39:01 40° 195° (SSW) 1,584 8.8 -19.0°
Enters shadow 22:41:03 32° 157° (SSE) 1,639 8.6 -19.2°
